[[{"header":{"parameterUnit":"m.s-1","parameterCategory":1,"la1":30.2991,"la2":30.254,"lo1":-89.0895,"lo2":-89.0444,"dy":0.0017,"dx":0.0017,"nx":28,"ny":28,"refTime":"2025-12-15T03:00:00:Z","depth":0,"parameterNumber":2,"parameterNumberName":"U-component_of_WINDS"},"data":[0,0,0,0,0,0,0,0,0,0,0,0,0,0,0,0,0,0,0,0,0,0,0,0,0,0,0,0,0,0,0,0,0,0,0,0,0,0,0,0,0,0,0,0,0,0,0,0,0,0,0,0,0,0,0,0,0,0,-2.637,-2.637,0,-2.6377,-2.6377,-2.6377,-2.6328,-2.6327,-2.6325,-2.6324,-2.6333,-2.6335,-2.6336,0,0,0,0,0,0,0,0,0,0,0,0,0,-2.6316,-2.6317,-2.637,-2.637,-2.637,-2.6377,-2.6377,-2.6377,-2.6328,-2.6326,-2.6325,-2.6323,-2.6333,-2.6334,-2.6336,0,0,0,0,0,0,0,0,0,0,0,0,0,-2.6333,-2.6318,-2.637,-2.6346,-2.6344,-2.6377,-2.6377,-2.6377,-2.6329,-2.6326,-2.6324,-2.6322,-2.6332,-2.6334,-2.6336,-2.6392,0,0,-2.6344,-2.6345,0,0,0,0,0,0,0,0,-2.6332,-2.6335,-2.635,-2.6348,-2.6346,-2.6349,-2.6361,-2.6382,-2.6329,-2.6335,-2.6324,-2.6321,-2.634,-2.6342,-2.6348,-2.6393,-2.6393,-2.6344,-2.6345,-2.6346,-2.6347,0,0,0,0,0,0,0,-2.6331,-2.6334,-2.6372,-2.635,-2.6348,-2.6336,-2.6336,-2.6365,-2.6349,-2.6334,-2.633,-2.6332,-2.6339,-2.6346,-2.6348,-2.6393,-2.6344,-2.6346,-2.6347,-2.6348,-2.6485,-2.6487,0,0,0,0,0,0,-2.6333,-2.6334,-2.6372,-2.6373,-2.6334,-2.6339,-2.6339,-2.635,-2.6349,-2.6346,-2.6334,-2.6329,-2.6343,-2.6345,-2.6348,-2.6412,-2.6346,-2.6348,-2.635,-2.6483,-2.6486,-2.6488,0,0,0,0,0,0,-2.6332,-2.6337,-2.6372,-2.6352,-2.6356,-2.6342,-2.6355,-2.6352,-2.6358,-2.6348,-2.6345,-2.6343,-2.6341,-2.6344,-2.6382,-2.6412,-2.6349,-2.6351,-2.648,-2.6484,-2.6487,-2.6543,0,0,0,0,0,0,-2.633,-2.6336,-2.6357,-2.6353,-2.6357,-2.6405,-2.6357,-2.6353,-2.6362,-2.6357,-2.6357,-2.6355,-2.634,-2.6378,-2.6384,-2.6414,-2.6353,-2.6477,-2.6482,-2.6486,-2.6538,-2.6548,-2.6556,0,0,0,0,0,-2.6329,-2.6372,-2.6358,-2.6363,-2.6382,-2.6407,-2.6409,-2.6391,-2.6365,-2.6385,-2.6379,-2.6355,-2.6409,-2.6383,-2.6388,-2.642,-2.6475,-2.6481,-2.6485,-2.6534,-2.6546,-2.6556,0,0,0,0,0,0,-2.638,-2.6371,-2.6355,-2.6399,-2.6404,-2.6398,-2.6423,-2.6404,-2.6416,-2.6411,-2.6388,-2.6389,-2.6429,-2.6429,-2.64,-2.6474,-2.6437,-2.6444,-2.6472,-2.6483,-2.6492,-2.649,-2.6355,0,0,0,0,0,-2.6397,-2.6417,-2.6409,-2.6448,-2.6451,-2.6438,-2.6447,-2.6433,-2.6437,-2.6439,-2.6436,-2.6441,-2.646,-2.6472,-2.6488,-2.6539,-2.6538,-2.6563,-2.6572,-2.658,-2.6585,-2.6611,-2.6622,-2.6505,-2.6505,-2.6505,0,0,-2.6431,-2.6429,-2.6443,-2.6458,-2.646,-2.6482,-2.6439,-2.6464,-2.648,-2.6443,-2.6477,-2.6476,-2.6481,-2.6525,-2.6544,-2.6525,-2.6618,-2.6586,-2.6592,-2.6593,-2.6618,-2.6629,-2.6639,-2.6508,-2.6508,-2.6507,0,0,-2.6503,-2.6504,-2.6537,-2.654,-2.6544,-2.6535,-2.6543,-2.6541,-2.6538,-2.6572,-2.6545,-2.6564,-2.6596,-2.6601,-2.6607,-2.6684,-2.6662,-2.6691,-2.6736,-2.6762,-2.6771,-2.6779,-2.6806,-2.6816,-2.6696,-2.6697,-2.6697,0,-2.6545,-2.6576,-2.6557,-2.6583,-2.6591,-2.6559,-2.6592,-2.6597,-2.6606,-2.6613,-2.6592,-2.6631,-2.6633,-2.6677,-2.6696,-2.6703,-2.6712,-2.6689,-2.6772,-2.678,-2.6787,-2.6812,-2.6822,-2.67,-2.67,-2.6699,-2.6699,0,-2.6627,-2.6649,-2.6676,-2.6684,-2.6696,-2.6726,-2.6712,-2.6726,-2.6711,-2.6705,-2.674,-2.6741,-2.6757,-2.6767,-2.6753,-2.681,-2.6798,-2.6775,-2.6738,-2.6802,-2.6825,-2.6834,-2.6705,-2.6703,-2.6702,-2.6702,0,0,-2.6729,-2.6729,-2.6738,-2.6742,-2.6745,-2.6762,-2.6792,-2.6807,-2.6819,-2.6828,-2.6851,-2.688,-2.6859,-2.6867,-2.6854,-2.6877,-2.6937,-2.6851,-2.6851,-2.6865,-2.6999,-2.7014,-2.7026,-2.6924,-2.6925,-2.6927,-2.6998,0,-2.6799,-2.6847,-2.6832,-2.6881,-2.6901,-2.6873,-2.6899,-2.6904,-2.6899,-2.6916,-2.6912,-2.6932,-2.6903,-2.6907,-2.693,-2.6925,-2.6963,-2.692,-2.6945,-2.6946,-2.6942,-2.7038,-2.7054,-2.7121,-2.7007,-2.7009,-2.701,0,-2.6886,-2.6897,-2.6948,-2.6948,-2.6956,-2.698,-2.6992,-2.701,-2.7016,-2.7011,-2.702,-2.7003,-2.7032,-2.6997,-2.7038,-2.7009,-2.7019,-2.7018,-2.7021,-2.702,-2.698,-2.7038,-2.7142,-2.7152,-2.7024,-2.7023,-2.7022,0,-2.6953,-2.6982,-2.7016,-2.7021,-2.7022,-2.7039,-2.7041,-2.7044,-2.7055,-2.7067,-2.7073,-2.709,-2.7098,-2.7111,-2.7099,-2.7074,-2.7142,-2.7105,-2.7138,-2.7138,-2.7151,-2.715,-2.7256,-2.7161,-2.7161,-2.7161,-2.7161,0,-2.7031,-2.7063,-2.7046,-2.7067,-2.7103,-2.7086,-2.7122,-2.712,-2.7125,-2.7145,-2.7123,-2.7143,-2.7127,-2.7146,-2.7137,-2.7172,-2.7176,-2.7173,-2.717,-2.7174,-2.7174,-2.7178,-2.7172,-2.7164,-2.7163,-2.7163,-2.7162,0,-2.7111,-2.7101,-2.7136,-2.7135,-2.7136,-2.7162,-2.7161,-2.7181,-2.7176,-2.7203,-2.7208,-2.72,-2.7221,-2.7211,-2.7234,-2.7228,-2.7272,-2.7264,-2.727,-2.7267,-2.7299,-2.7296,-2.741,-2.7424,-2.7323,-2.7324,-2.7324,0,-2.716,-2.7184,-2.7186,-2.7198,-2.72,-2.722,-2.7231,-2.7216,-2.7229,-2.7238,-2.7257,-2.7276,-2.7291,-2.7327,-2.7323,-2.7341,-2.7331,-2.7371,-2.7334,-2.7337,-2.733,-2.7328,-2.733,-2.7377,-2.7378,-2.7379,-2.738,0,-2.7247,-2.7241,-2.7257,-2.7272,-2.7285,-2.7296,-2.7305,-2.7317,-2.7303,-2.7318,-2.7339,-2.7351,-2.7374,-2.7393,-2.7409,-2.7412,-2.7393,-2.7392,-2.74,-2.7403,-2.7404,-2.7402,-2.7287,-2.7388,-2.7388,-2.7387,-2.7386,-2.7386,-2.7311,-2.7331,-2.7336,-2.7354,-2.736,-2.737,-2.7388,-2.7386,-2.7403,-2.742,-2.7411,-2.7436,-2.7443,-2.7462,-2.7468,-2.7488,-2.7472,-2.7484,-2.7487,-2.749,-2.7493,-2.7404,-2.7491,-2.7491,-2.749,-2.749,-2.749,0,-2.7396,-2.7398,-2.7415,-2.7429,-2.7444,-2.7427,-2.7436,-2.745,-2.7472,-2.748,-2.7495,-2.752,-2.754,-2.7539,-2.7557,-2.7573,-2.7565,-2.7578,-2.7575,-2.7576,-2.7507,-2.7497,-2.7584,-2.7584,-2.7584,-2.7584,-2.7584,-2.7584,-2.7441,-2.7474,-2.7469,-2.7505,-2.7507,-2.7531,-2.7538,-2.7547,-2.7553,-2.7582,-2.7598,-2.7597,-2.7602,-2.7621,-2.7638,-2.7637,-2.7644,-2.766,-2.7656,-2.7591,-2.7581,-2.7572,-2.7563,-2.7662,-2.7662,-2.7723,-2.7724,-2.7724]},{"header":{"parameterUnit":"m.s-1","parameterCategory":1,"la1":30.2991,"la2":30.254,"lo1":-89.0895,"lo2":-89.0444,"dy":0.0017,"dx":0.0017,"nx":28,"ny":28,"refTime":"2025-12-15T03:00:00:Z","depth":0,"parameterNumber":3,"parameterNumberName":"V-component_of_WINDS"},"data":[0,0,0,0,0,0,0,0,0,0,0,0,0,0,0,0,0,0,0,0,0,0,0,0,0,0,0,0,0,0,0,0,0,0,0,0,0,0,0,0,0,0,0,0,0,0,0,0,0,0,0,0,0,0,0,0,0,0,1.2439,1.2439,0,1.2383,1.2382,1.2382,1.2386,1.2386,1.2387,1.2388,1.2328,1.2326,1.2324,0,0,0,0,0,0,0,0,0,0,0,0,0,1.2549,1.2547,1.244,1.2439,1.2438,1.2383,1.2382,1.2382,1.2385,1.2386,1.2387,1.2388,1.2329,1.2326,1.2323,0,0,0,0,0,0,0,0,0,0,0,0,0,1.2498,1.2546,1.244,1.2433,1.2432,1.2383,1.2382,1.2381,1.2385,1.2386,1.2388,1.2389,1.233,1.2326,1.2323,1.2276,0,0,1.2312,1.2311,0,0,0,0,0,0,0,0,1.2501,1.2494,1.2435,1.2434,1.2432,1.2393,1.2399,1.2346,1.2385,1.2403,1.2388,1.239,1.2349,1.2344,1.233,1.2273,1.227,1.2312,1.231,1.2308,1.2307,0,0,0,0,0,0,0,1.2504,1.2496,1.2417,1.2434,1.2433,1.2433,1.2427,1.2389,1.2369,1.2402,1.2402,1.2395,1.2348,1.2334,1.2329,1.227,1.2312,1.2309,1.2306,1.2305,1.2172,1.217,0,0,0,0,0,0,1.251,1.2499,1.2419,1.2415,1.2471,1.243,1.2423,1.2404,1.237,1.2366,1.2394,1.2395,1.2339,1.2333,1.2327,1.227,1.2308,1.2305,1.2303,1.2173,1.2171,1.217,0,0,0,0,0,0,1.2512,1.2502,1.2421,1.2457,1.2447,1.2427,1.2405,1.2402,1.2388,1.2364,1.236,1.2383,1.234,1.2332,1.2289,1.2268,1.2303,1.23,1.2175,1.2173,1.2171,1.2156,0,0,0,0,0,0,1.2515,1.2503,1.2485,1.2457,1.2445,1.2385,1.2404,1.24,1.2382,1.2383,1.2353,1.2349,1.234,1.2294,1.2285,1.2264,1.2297,1.2177,1.2174,1.2171,1.2158,1.2153,1.2149,0,0,0,0,0,1.2519,1.2483,1.2484,1.2475,1.2423,1.2383,1.2377,1.2368,1.238,1.2362,1.2347,1.235,1.2272,1.229,1.228,1.2257,1.2178,1.2175,1.2172,1.216,1.2154,1.2149,0,0,0,0,0,0,1.2508,1.2479,1.248,1.2434,1.2411,1.2384,1.2361,1.2362,1.2335,1.2337,1.2327,1.232,1.2277,1.2262,1.2283,1.221,1.2226,1.2221,1.2221,1.2215,1.2211,1.2216,1.2294,0,0,0,0,0,1.2501,1.2472,1.2448,1.2409,1.2398,1.2381,1.2364,1.2359,1.2335,1.2325,1.2307,1.2283,1.2253,1.2233,1.2204,1.2156,1.2149,1.2135,1.2131,1.2127,1.2123,1.2097,1.2091,1.216,1.216,1.216,0,0,1.2484,1.2465,1.2447,1.2406,1.2388,1.2358,1.2373,1.2341,1.2318,1.232,1.2279,1.2264,1.2237,1.2191,1.217,1.2178,1.2103,1.2123,1.2121,1.2118,1.2093,1.2087,1.2081,1.2157,1.2158,1.2158,0,0,1.244,1.2422,1.2388,1.237,1.2343,1.2332,1.2324,1.2297,1.2288,1.2246,1.2247,1.222,1.2169,1.2149,1.2132,1.2081,1.2083,1.2072,1.205,1.2025,1.2019,1.2014,1.1997,1.199,1.2068,1.2068,1.2068,0,1.2423,1.2378,1.237,1.2338,1.2321,1.2321,1.2287,1.227,1.2234,1.2221,1.2231,1.2167,1.2148,1.2098,1.2086,1.2072,1.2063,1.2076,1.2021,1.2016,1.2011,1.1994,1.1987,1.2066,1.2067,1.2067,1.2067,0,1.2359,1.2329,1.2305,1.2271,1.2251,1.2218,1.2204,1.2184,1.2182,1.217,1.2128,1.2106,1.2073,1.2061,1.2057,1.2011,1.2016,1.2023,1.204,1.2004,1.1988,1.1981,1.2065,1.2065,1.2066,1.2066,0,0,1.2306,1.227,1.2261,1.2246,1.2217,1.2192,1.2159,1.2128,1.2111,1.2086,1.2059,1.2015,1.2022,1.2003,1.1997,1.1975,1.1937,1.1985,1.1984,1.1977,1.1885,1.1881,1.1873,1.1938,1.1937,1.1935,1.1888,0,1.2259,1.2202,1.2194,1.2143,1.2114,1.2115,1.2086,1.2065,1.2053,1.2027,1.2014,1.1984,1.1994,1.1983,1.1961,1.1946,1.1918,1.1949,1.1912,1.1911,1.1919,1.1865,1.186,1.1816,1.1881,1.188,1.1879,0,1.2196,1.2171,1.2118,1.2093,1.2081,1.2055,1.2026,1.2001,1.1977,1.197,1.1949,1.1946,1.1912,1.193,1.1882,1.1904,1.1888,1.1878,1.1876,1.1873,1.1893,1.186,1.1801,1.1795,1.1869,1.187,1.1871,0,1.2164,1.2117,1.2079,1.2066,1.2036,1.2018,1.2004,1.1981,1.1963,1.1937,1.1925,1.1896,1.1879,1.1856,1.1845,1.1859,1.1799,1.1816,1.1792,1.1793,1.178,1.1781,1.1718,1.1768,1.1769,1.1769,1.1769,0,1.2113,1.208,1.2064,1.2041,1.2004,1.1996,1.1959,1.1946,1.1926,1.19,1.1898,1.1873,1.186,1.1834,1.1825,1.1787,1.178,1.1773,1.1771,1.1774,1.1775,1.1764,1.1767,1.1767,1.1767,1.1768,1.1768,0,1.2071,1.2059,1.2018,1.1993,1.1986,1.196,1.1938,1.1915,1.1904,1.1871,1.1863,1.1845,1.1814,1.1801,1.1762,1.1756,1.1713,1.1713,1.1722,1.1721,1.1699,1.1702,1.1627,1.1617,1.1674,1.1673,1.1673,0,1.2039,1.2015,1.1987,1.197,1.1956,1.1928,1.191,1.19,1.1881,1.1852,1.1833,1.1802,1.1777,1.1726,1.171,1.168,1.168,1.1656,1.1675,1.1679,1.168,1.1682,1.168,1.1652,1.1652,1.1651,1.1651,0,1.1985,1.1981,1.1955,1.1927,1.1906,1.1883,1.1861,1.1847,1.1833,1.1812,1.1781,1.1761,1.1722,1.1691,1.1661,1.1646,1.1646,1.1645,1.1638,1.1641,1.1647,1.1644,1.1713,1.1647,1.1647,1.1648,1.1648,1.1648,1.1948,1.1926,1.1904,1.1875,1.1858,1.1838,1.1815,1.1802,1.1776,1.1744,1.1739,1.1706,1.1682,1.1641,1.1626,1.1599,1.1605,1.1595,1.1592,1.159,1.1589,1.1651,1.1593,1.1593,1.1593,1.1593,1.1594,0,1.1894,1.188,1.1854,1.1824,1.1802,1.1804,1.178,1.1761,1.1732,1.171,1.1686,1.165,1.162,1.1601,1.1571,1.1553,1.1553,1.1546,1.1547,1.1544,1.1585,1.1595,1.1547,1.1547,1.1547,1.1547,1.1547,1.1547,1.1864,1.1828,1.1821,1.1776,1.1761,1.1729,1.1715,1.1696,1.1679,1.164,1.1615,1.1603,1.1583,1.1551,1.1524,1.1519,1.1509,1.1502,1.1497,1.1536,1.1541,1.1546,1.1555,1.1499,1.1499,1.1458,1.1458,1.1458]}]]